Villa Grove, CO

8:48 AM MST on December 07, 2016 (GMT -0700)
Monarch Pass

Weather History for KMYP - August, 2013

Change the Weather History Date:

Saturday, August 24, 2013

  Actual Average (KGUC) Record (KGUC)
Temperature  
Mean Temperature 50 °F -  
Max Temperature 59 °F 73 °F 82 °F (2008)
Min Temperature 41 °F 41 °F 35 °F (2001)
Degree Days  
Heating Degree Days 15    
Moisture  
Dew Point 38 °F    
Average Humidity 71    
Maximum Humidity 93    
Minimum Humidity 42    
Precipitation  
Precipitation 0.00 in - - ()
Sea Level Pressure  
Sea Level Pressure 30.72 in    
Wind  
Wind Speed 15 mph (SW)    
Max Wind Speed 24 mph    
Max Gust Speed 31 mph    
Visibility 10 miles    
Events Rain , Thunderstorm    
Averages and records for this station are not official NWS values.
T = Trace of Precipitation, MM = Missing Value Source: NWS Daily Summary

Daily Weather History Graph

Daily Weather History Graph

Search for Another Location

Airport or City:

Trip Planner

Search our weather history database for the weather conditions in past years. The results will help you decide how hot, cold, wet, or windy it might be!

Date:

Astronomy

Aug. 24, 2013 Rise Set
Actual Time 6:27 AM MDT 7:46 PM MDT
Civil Twilight 6:00 AM MDT 8:14 PM MDT
Nautical Twilight 5:27 AM MDT 8:47 PM MDT
Astronomical Twilight 4:52 AM MDT 9:21 PM MDT
Moon 9:46 PM MDT (8/24) 10:26 AM MDT (8/24)
Length of Visible Light 14h 13m
Length of Day
13h 18m
Waning Gibbous, 84% of the Moon is Illuminated
Aug 24
Waning Gibbous
Aug 28
Last Quarter
Sep 5
New
Sep 12
First Quarter
Sep 19
Full

Hourly Weather History & Observations

Time (MDT) Temp. Windchill Dew Point Humidity Pressure Visibility Wind Dir Wind Speed Gust Speed Precip Events Conditions
12:08 AM 46.4 °F 40.4 °F 37.4 °F 71% 30.68 in 10.0 mi WSW 13.8 mph - N/A   Clear
12:28 AM 46.4 °F 40.4 °F 37.4 °F 71% 30.68 in 10.0 mi West 13.8 mph - N/A Thunderstorm Clear
12:48 AM 46.4 °F 40.7 °F 37.4 °F 71% 30.68 in 10.0 mi SW 12.7 mph - N/A Thunderstorm Clear
1:08 AM 44.6 °F 39.2 °F 37.4 °F 76% 30.68 in 10.0 mi WSW 10.4 mph - N/A   Clear
1:28 AM 44.6 °F 38.4 °F 37.4 °F 76% 30.68 in 10.0 mi WSW 12.7 mph - N/A   Scattered Clouds
1:48 AM 46.4 °F 40.7 °F 37.4 °F 71% 30.69 in 10.0 mi SW 12.7 mph - N/A   Mostly Cloudy
2:08 AM 44.6 °F 38.4 °F 39.2 °F 81% 30.68 in 10.0 mi SW 12.7 mph - N/A Thunderstorm Scattered Clouds
2:28 AM 44.6 °F 37.8 °F 37.4 °F 76% 30.68 in 10.0 mi SW 15.0 mph - N/A   Mostly Cloudy
2:48 AM 44.6 °F 36.6 °F 37.4 °F 76% 30.69 in 10.0 mi WSW 19.6 mph - N/A   Mostly Cloudy
3:08 AM 44.6 °F 37.2 °F 39.2 °F 81% 30.69 in 10.0 mi West 17.3 mph 21.9 mph N/A   Overcast
3:28 AM 44.6 °F 35.7 °F 39.2 °F 81% 30.69 in 10.0 mi West 24.2 mph - N/A   Overcast
3:48 AM 42.8 °F 33.8 °F 39.2 °F 87% 30.69 in 10.0 mi West 21.9 mph - N/A   Drizzle
4:08 AM 42.8 °F 33.8 °F 39.2 °F 87% 30.69 in 10.0 mi West 21.9 mph 26.5 mph N/A   Overcast
4:28 AM 42.8 °F 33.8 °F 39.2 °F 87% 30.69 in 10.0 mi West 21.9 mph 31.1 mph N/A   Mostly Cloudy
4:48 AM 41.0 °F 31.4 °F 39.2 °F 93% 30.69 in 10.0 mi West 21.9 mph - N/A   Mostly Cloudy
5:08 AM 41.0 °F 31.6 °F 37.4 °F 87% 30.69 in 10.0 mi WSW 20.7 mph 24.2 mph N/A   Mostly Cloudy
5:28 AM 42.8 °F 34.8 °F 37.4 °F 81% 30.69 in 10.0 mi West 17.3 mph - N/A   Overcast
5:48 AM 42.8 °F 35.8 °F 37.4 °F 81% 30.69 in 10.0 mi WSW 13.8 mph - N/A   Drizzle
6:08 AM 42.8 °F 35.1 °F 37.4 °F 81% 30.68 in 10.0 mi WSW 16.1 mph - N/A   Mostly Cloudy
6:28 AM 44.6 °F 38.1 °F 37.4 °F 76% 30.69 in 10.0 mi WSW 13.8 mph - N/A   Overcast
6:48 AM 42.8 °F 36.2 °F 37.4 °F 81% 30.70 in 10.0 mi SW 12.7 mph - N/A   Mostly Cloudy
7:08 AM 44.6 °F 37.4 °F 37.4 °F 76% 30.70 in 10.0 mi SW 16.1 mph - N/A   Mostly Cloudy
7:28 AM 44.6 °F 38.1 °F 37.4 °F 76% 30.70 in 10.0 mi SW 13.8 mph - N/A   Scattered Clouds
7:48 AM 42.8 °F 35.4 °F 37.4 °F 81% 30.71 in 10.0 mi SSW 15.0 mph - N/A   Clear
8:08 AM 44.6 °F 39.2 °F 37.4 °F 76% 30.71 in 10.0 mi SSW 10.4 mph - N/A   Clear
8:28 AM 46.4 °F 41.1 °F 37.4 °F 71% 30.71 in 10.0 mi SSW 11.5 mph - N/A   Clear
8:48 AM 46.4 °F 40.1 °F 37.4 °F 71% 30.71 in 10.0 mi SSW 15.0 mph 19.6 mph N/A   Scattered Clouds
9:08 AM 48.2 °F - 37.4 °F 66% 30.72 in 10.0 mi SW 17.3 mph - N/A   Mostly Cloudy
9:28 AM 50.0 °F - 39.2 °F 66% 30.71 in 10.0 mi SSW 18.4 mph 21.9 mph N/A   Overcast
9:48 AM 48.2 °F - 37.4 °F 66% 30.72 in 10.0 mi WSW 19.6 mph 27.6 mph N/A   Overcast
10:08 AM 48.2 °F - 37.4 °F 66% 30.74 in 10.0 mi WSW 19.6 mph 25.3 mph N/A   Overcast
10:28 AM 48.2 °F - 39.2 °F 71% 30.74 in 10.0 mi WSW 18.4 mph - N/A   Overcast
10:48 AM 48.2 °F - 37.4 °F 66% 30.74 in 10.0 mi SW 16.1 mph 25.3 mph N/A   Overcast
11:08 AM 50.0 °F - 39.2 °F 66% 30.74 in 10.0 mi SW 12.7 mph 21.9 mph N/A   Overcast
11:28 AM 50.0 °F - 39.2 °F 66% 30.75 in 10.0 mi WSW 10.4 mph 16.1 mph N/A   Overcast
11:48 AM 48.2 °F - 39.2 °F 71% 30.75 in 10.0 mi West 12.7 mph - N/A   Overcast
12:08 PM 51.8 °F - 39.2 °F 62% 30.75 in 10.0 mi WSW 9.2 mph - N/A   Mostly Cloudy
12:28 PM 53.6 °F - 37.4 °F 54% 30.74 in 10.0 mi West 11.5 mph 20.7 mph N/A   Overcast
12:48 PM 53.6 °F - 35.6 °F 51% 30.74 in 10.0 mi SW 18.4 mph 21.9 mph N/A   Overcast
1:08 PM 55.4 °F - 37.4 °F 51% 30.74 in 10.0 mi SW 16.1 mph 20.7 mph N/A   Mostly Cloudy
1:28 PM 55.4 °F - 37.4 °F 51% 30.73 in 10.0 mi WSW 13.8 mph 25.3 mph N/A   Mostly Cloudy
1:48 PM 55.4 °F - 37.4 °F 51% 30.73 in 10.0 mi WSW 11.5 mph 21.9 mph N/A Thunderstorm Overcast
2:08 PM 59.0 °F - 37.4 °F 45% 30.73 in 10.0 mi West 6.9 mph 19.6 mph N/A   Scattered Clouds
2:28 PM 59.0 °F - 35.6 °F 42% 30.73 in 10.0 mi SW 9.2 mph 18.4 mph N/A   Mostly Cloudy
2:48 PM 57.2 °F - 35.6 °F 44% 30.73 in 10.0 mi West 9.2 mph - N/A   Mostly Cloudy
3:08 PM 55.4 °F - 35.6 °F 47% 30.72 in 10.0 mi WSW 13.8 mph 20.7 mph N/A   Mostly Cloudy
3:28 PM 55.4 °F - 37.4 °F 51% 30.72 in 10.0 mi SW 13.8 mph - N/A   Overcast
3:48 PM 55.4 °F - 35.6 °F 47% 30.72 in 10.0 mi SW 17.3 mph 23.0 mph N/A   Overcast
4:08 PM 51.8 °F - 37.4 °F 58% 30.73 in 10.0 mi SSW 20.7 mph - N/A   Overcast
4:28 PM 51.8 °F - 39.2 °F 62% 30.73 in 10.0 mi SSW 18.4 mph - N/A   Overcast
4:48 PM 50.0 °F - 39.2 °F 66% 30.73 in 10.0 mi SW 17.3 mph - N/A   Overcast
5:08 PM 48.2 °F - 41.0 °F 76% 30.74 in 7.0 mi SSW 16.1 mph - N/A Rain Light Rain
5:28 PM 46.4 °F 40.1 °F 42.8 °F 87% 30.72 in 7.0 mi West 15.0 mph - N/A Rain Light Rain
5:48 PM 46.4 °F 41.1 °F 41.0 °F 81% 30.71 in 10.0 mi West 11.5 mph - N/A   Overcast
6:08 PM 50.0 °F - 41.0 °F 71% 30.71 in 10.0 mi West 10.4 mph - N/A   Overcast
6:28 PM 48.2 °F - 42.8 °F 82% 30.71 in 10.0 mi WSW 9.2 mph - N/A   Mostly Cloudy
6:48 PM 46.4 °F 41.5 °F 42.8 °F 87% 30.71 in 10.0 mi SW 10.4 mph - N/A   Mostly Cloudy
7:08 PM 50.0 °F - 41.0 °F 71% 30.72 in 10.0 mi SW 12.7 mph - N/A   Scattered Clouds
7:28 PM 50.0 °F - 42.8 °F 76% 30.72 in 10.0 mi SW 10.4 mph - N/A   Mostly Cloudy
7:48 PM 48.2 °F - 41.0 °F 76% 30.72 in 10.0 mi SSW 10.4 mph - N/A   Mostly Cloudy
8:08 PM 48.2 °F - 39.2 °F 71% 30.72 in 10.0 mi SW 12.7 mph - N/A   Overcast
8:28 PM 46.4 °F 41.1 °F 39.2 °F 76% 30.74 in 10.0 mi SW 11.5 mph - N/A   Scattered Clouds
8:48 PM 46.4 °F 42.4 °F 39.2 °F 76% 30.74 in 10.0 mi SW 8.1 mph - N/A   Clear
9:08 PM 46.4 °F 42.9 °F 39.2 °F 76% 30.75 in 10.0 mi SW 6.9 mph - N/A   Scattered Clouds
9:28 PM 46.4 °F 42.9 °F 39.2 °F 76% 30.76 in 10.0 mi SW 6.9 mph - N/A   Scattered Clouds
9:48 PM 46.4 °F 42.9 °F 39.2 °F 76% 30.77 in 10.0 mi SSW 6.9 mph - N/A   Clear
10:08 PM 46.4 °F 41.1 °F 39.2 °F 76% 30.77 in 10.0 mi SSW 11.5 mph - N/A   Scattered Clouds
10:28 PM 46.4 °F 40.7 °F 39.2 °F 76% 30.76 in 10.0 mi SSW 12.7 mph - N/A   Scattered Clouds
10:48 PM 46.4 °F 40.1 °F 37.4 °F 71% 30.77 in 10.0 mi SSW 15.0 mph - N/A   Clear
11:08 PM 46.4 °F 39.8 °F 39.2 °F 76% 30.76 in 10.0 mi South 16.1 mph - N/A   Scattered Clouds
11:28 PM 46.4 °F 39.2 °F 39.2 °F 76% 30.76 in 10.0 mi SSW 18.4 mph 24.2 mph N/A   Overcast
11:48 PM 44.6 °F 37.2 °F 39.2 °F 81% 30.76 in 10.0 mi South 17.3 mph 21.9 mph N/A   Mostly Cloudy